Date,TemperatureHighF,TemperatureAvgF,TemperatureLowF,DewpointHighF,DewpointAvgF,DewpointLowF,HumidityHigh,HumidityAvg,HumidityLow,PressureMaxIn,PressureMinIn,WindSpeedMaxMPH,WindSpeedAvgMPH,GustSpeedMaxMPH,PrecipitationSumIn
2013-7-1,80.8,66.3,53.6,58.0,53.0,49.1,90,65,38,30.01,29.90,14,1,14,0.03
2013-7-2,82.5,67.1,50.3,57.5,50.4,44.6,93,59,32,29.98,29.83,10,1,10,0.00
2013-7-3,88.1,69.4,50.8,52.4,47.5,43.0,83,50,23,29.84,29.59,19,1,19,0.00
2013-7-4,90.8,73.4,55.9,57.0,47.5,44.0,66,42,22,29.67,29.56,16,2,27,0.01
2013-7-5,89.0,72.4,60.4,60.0,51.8,47.0,72,51,27,29.57,29.48,10,1,22,0.00
2013-7-6,91.5,73.8,60.7,61.0,51.3,45.0,75,48,23,29.63,29.50,14,2,31,0.08
2013-7-7,86.6,73.2,60.0,57.0,53.1,48.0,78,52,30,29.73,29.61,10,1,15,0.00
2013-7-8,97.3,77.1,61.3,58.0,49.9,38.0,74,43,13,29.71,29.63,15,2,36,0.00
2013-7-9,94.7,78.2,62.9,56.0,45.9,38.0,58,35,15,29.81,29.72,8,1,25,0.00
2013-7-10,87.8,74.1,57.0,60.0,52.2,43.0,72,48,28,29.84,29.67,5,1,12,0.00
2013-7-11,97.2,74.6,58.0,60.0,53.8,40.0,83,53,15,29.75,29.48,11,1,30,0.15
2013-7-12,92.1,71.4,63.5,64.0,57.8,51.0,90,66,26,29.70,29.54,16,1,24,0.13
2013-7-13,91.1,69.5,61.3,63.0,59.9,53.0,93,75,31,29.84,29.67,8,1,17,0.23
2013-7-14,80.4,68.8,56.0,63.0,58.8,54.0,93,72,46,29.92,29.77,9,1,11,0.00
2013-7-15,77.8,69.0,59.5,64.7,58.5,51.0,93,70,56,29.88,29.78,15,1,15,0.05
2013-7-16,83.8,68.4,52.3,57.4,51.3,46.7,93,58,31,29.92,29.83,13,1,14,0.00
2013-7-17,89.2,71.3,53.4,59.5,52.8,48.1,87,57,26,29.93,29.76,9,0,10,0.00
2013-7-18,92.8,74.5,60.7,57.5,53.4,47.3,74,51,26,29.82,29.68,23,2,26,0.00
2013-7-19,84.7,73.0,63.0,59.4,56.2,51.6,79,57,34,29.82,29.71,11,1,11,0.00
2013-7-20,92.4,71.6,55.1,58.7,53.1,48.3,85,56,24,29.73,29.58,14,1,15,0.00
2013-7-21,87.2,72.1,54.0,61.3,55.4,47.1,84,58,35,29.65,29.55,10,1,12,0.00
2013-7-22,95.3,77.9,60.0,60.2,51.3,34.2,74,43,21,29.62,29.53,11,1,11,0.00
2013-7-23,91.3,76.1,59.5,58.2,47.3,26.6,65,38,20,29.76,29.56,7,1,8,0.00
2013-7-24,81.1,72.0,60.6,63.0,54.8,39.8,79,57,30,29.85,29.69,39,2,40,0.00
2013-7-25,78.7,62.1,56.8,60.0,54.5,50.0,90,78,42,29.99,29.71,10,1,15,0.12
2013-7-26,85.9,69.2,54.3,57.0,51.3,43.0,87,57,24,30.02,29.84,5,1,14,0.00
2013-7-27,79.3,65.3,52.4,60.0,53.4,46.0,94,67,46,29.86,29.74,5,1,9,0.12
2013-7-28,69.7,61.4,58.4,63.0,58.4,56.0,96,90,70,29.81,29.67,3,0,9,0.17
2013-7-29,71.0,61.1,56.4,62.0,56.0,51.6,95,84,56,29.94,29.69,6,0,11,0.02
2013-7-30,88.8,70.2,53.8,58.4,52.1,46.4,87,57,26,29.98,29.85,26,1,27,0.00
2013-7-31,90.6,72.8,57.1,56.5,51.4,41.3,83,52,19,30.00,29.79,9,1,10,0.00